Regional Weather Roundup
Issued by NWS

Home | Current Version | Previous Version | Graphics & Text | Print | Product List | Glossary On
Versions: 1 2 3 4 5 6 7 8 9 10 11 12 13 14 15 16 17 18 19 20 21 22 23 24 25 26 27 28 29 30 31 32 33 34 35 36 37 38 39 40 41 42 43 44 45 46 47 48 49 50
933
ASUS44 KLIX 300101
RWRLA
LOUISIANA WEATHER ROUNDUP
NATIONAL WEATHER SERVICE NEW ORLEANS LA
800 PM CDT TUE JUL 29 2014

NOTE: "FAIR" INDICATES FEW OR NO CLOUDS BELOW 12,000 FEET WITH NO
      SIGNIFICANT WEATHER AND/OR OBSTRUCTIONS TO VISIBILITY.
      SKY/WX - SKY CONDITION AND SIGNIFICANT WEATHER.
      TMP - AIR TEMPERATURE.    DP   - DEWPOINT TEMPERATURE.
      RH  - RELATIVE HUMIDITY.  PRES - PRESSURE.
      HX  - HEAT INDEX.         WCI  - WIND CHILL INDEX.

*  THESE STATIONS ARE NOT NWS OR FAA STATIONS AND ARE NOT UNDER
   NWS QUALITY CONTROL.

LAZ040-048-061>063-065-066-069-300200-
SOUTHEAST LOUISIANA

CITY           SKY/WX    TMP DP  RH WIND       PRES   REMARKS
N.O. AUDUBON     N/A     84  64  50 MISG        N/A
N.O. INTL ARPT MOCLDY    83  63  50 N3        30.01S
N.O. LAKEFRONT CLEAR     85  64  49 N8        30.01S
N.O. DOWNTOWN* FAIR      84  63  48 CALM      30.01S
SLIDELL        CLEAR     81  69  67 CALM      30.00S
BATON ROUGE    CLEAR     81  67  62 CALM      30.02S
BOOTHVILLE     PTCLDY    80  72  76 CALM      30.01S
BELLE CHASSE   MOCLDY    81  63  54 N3        30.01R
BOGALUSA*      FAIR      80  71  73 CALM      30.02S
GALLIANO*      NOT AVBL
NEW ROADS*     FAIR      81  69  66 NW3       30.02S
GONZALES*      FAIR      78  71  80 CALM      30.01S
HAMMOND*       CLEAR     81  66  61 CALM      30.03R
HOUMA*         PTCLDY    82  69  64 CALM      30.01R
PORT FOURCHON* CLEAR     84  68  58 N9        30.02S

$$

LAZ041-044-053-054-300200-
SOUTHWEST LOUISIANA

CITY           SKY/WX    TMP DP  RH WIND       PRES   REMARKS
LAKE CHARLES   PTCLDY    83  69  62 NE6       30.03R
LAFAYETTE      PTCLDY    81  66  60 NE3       30.03S
PATTERSON      PTCLDY    81  72  74 NW5       30.06R
SALT POINT       N/A     84  72  67 CALM      30.02R
NEW IBERIA     PTCLDY    81  66  60 N5        30.03R
CHENAULT AIRPK NOT AVBL

$$

LAZ027-028-300200-
CENTRAL LOUISIANA

CITY           SKY/WX    TMP DP  RH WIND       PRES   REMARKS
FORT POLK      CLEAR     84  66  54 CALM      30.04S
ALEXANDRIA INT CLEAR     82  68  62 CALM      30.01S
ALEXANDRIA     CLEAR     80  70  71 CALM      30.03S

$$

LAZ001-002-300200-
NORTHWEST LOUISIANA

CITY           SKY/WX    TMP DP  RH WIND       PRES   REMARKS
SHREVEPORT     PTCLDY    85  62  46 N6        30.05S
BARKSDALE AFB  CLEAR     83  64  52 NE3       30.06S
DTN SHREVEPORT CLEAR     84  63  49 N3        30.06R

$$

LAZ014-016-300200-
NORTHEAST LOUISIANA

CITY           SKY/WX    TMP DP  RH WIND       PRES   REMARKS
MONROE         CLEAR     80  65  59 NE8       30.07R
TALLULAH       CLEAR     79  63  57 NE10      30.06R

$$




USA.gov is the U.S. government's official web portal to all federal, state and local government web resources and services.